Terminal Aerodrome Forecast
Issued by NWS

Home | Current Version | Previous Version | Text Only | Print | Product List | Glossary On
Versions: 1 2 3 4 5 6 7 8 9 10 11 12 13
000
FTUS44 KEPZ 062300 RRA
TAFDMN
TAF
KDMN 062335Z 0700/0724 24012G23KT P6SM FEW100 FEW200
     FM070300 27012KT P6SM FEW120
     FM070900 30008KT P6SM FEW120
     FM071600 25010G20KT P6SM FEW080
     FM071800 24017G27KT P6SM FEW110 FEW250=

USA.gov is the U.S. government's official web portal to all federal, state and local government web resources and services.